| time (UTC) | temp F | wind direction | speed knots | gust knots | rain 1hr in | rain 24hr in | rain mn in | humidity % | barometer mb |
| 20260504033630 | 44 | 294 | 0.0 | 0.0 | 0.00 | 0.00 | 0.00 | 59 | 1014.9 |
| 20260504033127 | 44 | 310 | 0.0 | 0.0 | 0.00 | 0.00 | 0.00 | 59 | 1014.8 |
| 20260504032624 | 44 | 296 | 0.0 | 0.0 | 0.00 | 0.00 | 0.00 | 57 | 1014.8 |
| 20260504032120 | 44 | 298 | 0.0 | 0.0 | 0.00 | 0.00 | 0.00 | 56 | 1014.9 |
| 20260504031618 | 44 | 298 | 0.0 | 0.0 | 0.00 | 0.00 | 0.00 | 57 | 1015.0 |
| 20260504031113 | 44 | 296 | 0.0 | 0.0 | 0.00 | 0.00 | 0.00 | 56 | 1014.9 |
| 20260504030611 | 44 | 308 | 0.0 | 0.0 | 0.00 | 0.00 | 0.00 | 56 | 1015.0 |
| 20260504030108 | 45 | 325 | 0.0 | 0.0 | 0.00 | 0.00 | 0.00 | 59 | 1014.9 |
| 20260504025604 | 45 | 326 | 0.0 | 0.0 | 0.00 | 0.00 | 0.00 | 56 | 1014.8 |
| 20260504025101 | 45 | 300 | 0.0 | 0.0 | 0.00 | 0.00 | 0.00 | 57 | 1014.8 |
| 20260504024558 | 45 | 285 | 0.0 | 0.0 | 0.00 | 0.00 | 0.00 | 54 | 1014.8 |
| 20260504024055 | 46 | 284 | 0.0 | 0.0 | 0.00 | 0.00 | 0.00 | 56 | 1015.1 |
| 20260504023551 | 46 | 285 | 0.0 | 0.0 | 0.00 | 0.00 | 0.00 | 53 | 1015.1 |
| 20260504023047 | 46 | 285 | 0.0 | 0.0 | 0.00 | 0.00 | 0.00 | 54 | 1015.0 |
| 20260504022543 | 46 | 285 | 0.0 | 0.0 | 0.00 | 0.00 | 0.00 | 51 | 1014.9 |
| 20260504022040 | 46 | 285 | 0.0 | 0.0 | 0.00 | 0.00 | 0.00 | 55 | 1015.0 |
| 20260504021538 | 46 | 285 | 0.0 | 0.0 | 0.00 | 0.00 | 0.00 | 51 | 1015.0 |
| 20260504021034 | 46 | 278 | 0.0 | 0.0 | 0.00 | 0.00 | 0.00 | 52 | 1015.1 |
| 20260504020531 | 46 | 273 | 0.0 | 0.0 | 0.00 | 0.00 | 0.00 | 51 | 1014.9 |
| 20260504020028 | 47 | 270 | 0.0 | 0.0 | 0.00 | 0.00 | 0.00 | 52 | 1015.1 |
| 20260504015524 | 47 | 270 | 0.0 | 0.0 | 0.00 | 0.00 | 0.00 | 50 | 1015.2 |
| 20260504015020 | 47 | 269 | 0.0 | 0.0 | 0.00 | 0.00 | 0.00 | 49 | 1015.0 |
| 20260504014516 | 47 | 267 | 0.0 | 0.0 | 0.00 | 0.00 | 0.00 | 49 | 1014.9 |
| 20260504014014 | 47 | 268 | 0.0 | 0.0 | 0.00 | 0.00 | 0.00 | 48 | 1014.8 |
| 20260504013512 | 47 | 268 | 0.0 | 0.0 | 0.00 | 0.00 | 0.00 | 51 | 1014.8 |
| 20260504013009 | 47 | 268 | 0.0 | 0.0 | 0.00 | 0.00 | 0.00 | 50 | 1014.7 |
| 20260504012506 | 47 | 268 | 0.0 | 0.0 | 0.00 | 0.00 | 0.00 | 49 | 1014.8 |
| 20260504012004 | 47 | 270 | 0.0 | 0.0 | 0.00 | 0.00 | 0.00 | 49 | 1014.7 |
| 20260504011500 | 47 | 269 | 0.0 | 0.0 | 0.00 | 0.00 | 0.00 | 52 | 1014.9 |
| 20260504010955 | 48 | 269 | 0.0 | 0.0 | 0.00 | 0.00 | 0.00 | 50 | 1014.9 |
| 20260504010452 | 48 | 274 | 0.0 | 0.0 | 0.00 | 0.00 | 0.00 | 47 | 1014.7 |
| 20260504005948 | 48 | 262 | 0.0 | 0.0 | 0.00 | 0.00 | 0.00 | 49 | 1014.8 |
| 20260504005445 | 48 | 253 | 0.0 | 0.9 | 0.00 | 0.00 | 0.00 | 49 | 1014.5 |
| 20260504004942 | 48 | 220 | 0.0 | 0.0 | 0.00 | 0.00 | 0.00 | 48 | 1014.5 |
| 20260504004440 | 48 | 205 | 0.0 | 0.0 | 0.00 | 0.00 | 0.00 | 46 | 1014.4 |
| 20260504003937 | 48 | 205 | 0.0 | 0.0 | 0.00 | 0.00 | 0.00 | 50 | 1014.4 |
| 20260504003433 | 49 | 193 | 0.0 | 0.0 | 0.00 | 0.00 | 0.00 | 50 | 1014.5 |
| 20260504002930 | 50 | 49 | 0.0 | 0.9 | 0.00 | 0.00 | 0.00 | 44 | 1014.4 |
| 20260504002427 | 50 | 58 | 0.0 | 0.0 | 0.00 | 0.00 | 0.00 | 42 | 1014.5 |
| 20260504001924 | 50 | 91 | 0.0 | 0.9 | 0.00 | 0.00 | 0.00 | 45 | 1014.4 |
| 20260504001422 | 50 | 96 | 0.0 | 0.0 | 0.00 | 0.00 | 0.00 | 41 | 1014.5 |
| 20260504000918 | 50 | 96 | 0.0 | 0.9 | 0.00 | 0.00 | 0.00 | 41 | 1014.4 |
| 20260504000416 | 50 | 108 | 0.9 | 1.7 | 0.00 | 0.00 | 0.00 | 41 | 1014.7 |
| 20260503235912 | 50 | 53 | 0.0 | 0.9 | 0.00 | 0.00 | 0.00 | 41 | 1014.5 |
| 20260503235410 | 50 | 68 | 0.9 | 1.7 | 0.00 | 0.00 | 0.00 | 40 | 1014.6 |
| 20260503234908 | 50 | 86 | 1.7 | 2.6 | 0.00 | 0.00 | 0.00 | 41 | 1014.6 |
| 20260503234405 | 51 | 88 | 0.0 | 1.7 | 0.00 | 0.00 | 0.00 | 41 | 1014.9 |
| 20260503233903 | 51 | 87 | 0.9 | 2.6 | 0.00 | 0.00 | 0.00 | 40 | 1014.6 |
| 20260503233359 | 51 | 54 | 0.9 | 2.6 | 0.00 | 0.00 | 0.00 | 41 | 1014.7 |
| 20260503232855 | 51 | 82 | 3.5 | 5.2 | 0.00 | 0.00 | 0.00 | 40 | 1014.6 |
| 20260503232353 | 52 | 352 | 0.9 | 2.6 | 0.00 | 0.00 | 0.00 | 40 | 1014.7 |
| 20260503231850 | 52 | 79 | 1.7 | 2.6 | 0.00 | 0.00 | 0.00 | 41 | 1014.7 |
| 20260503231347 | 52 | 120 | 0.9 | 3.5 | 0.00 | 0.00 | 0.00 | 39 | 1014.8 |
| 20260503230843 | 52 | 146 | 0.0 | 3.5 | 0.00 | 0.00 | 0.00 | 40 | 1014.6 |
| 20260503230340 | 52 | 49 | 1.7 | 1.7 | 0.00 | 0.00 | 0.00 | 42 | 1014.7 |
| 20260503225838 | 52 | 24 | 0.9 | 5.2 | 0.00 | 0.00 | 0.00 | 43 | 1014.8 |
| 20260503225333 | 52 | 62 | 3.5 | 3.5 | 0.00 | 0.00 | 0.00 | 39 | 1014.7 |
| 20260503224830 | 52 | 289 | 1.7 | 2.6 | 0.00 | 0.00 | 0.00 | 39 | 1014.7 |
| 20260503224327 | 52 | 65 | 2.6 | 2.6 | 0.00 | 0.00 | 0.00 | 38 | 1014.8 |
| 20260503223825 | 55 | 8 | 1.7 | 5.2 | 0.00 | 0.00 | 0.00 | 37 | 1014.7 |
| 20260503223323 | 55 | 26 | 1.7 | 2.6 | 0.00 | 0.00 | 0.00 | 37 | 1014.7 |
| 20260503222818 | 55 | 15 | 0.9 | 5.2 | 0.00 | 0.00 | 0.00 | 38 | 1014.9 |
| 20260503222317 | 55 | 65 | 1.7 | 3.5 | 0.00 | 0.00 | 0.00 | 38 | 1014.7 |
| 20260503221814 | 56 | 59 | 1.7 | 3.5 | 0.00 | 0.00 | 0.00 | 37 | 1014.8 |
| 20260503221313 | 56 | 92 | 2.6 | 3.5 | 0.00 | 0.00 | 0.00 | 33 | 1014.7 |
| 20260503220808 | 55 | 111 | 3.5 | 5.2 | 0.00 | 0.00 | 0.00 | 35 | 1014.5 |
| 20260503220306 | 56 | 16 | 1.7 | 7.0 | 0.00 | 0.00 | 0.00 | 36 | 1014.7 |
| 20260503215802 | 55 | 30 | 2.6 | 5.2 | 0.00 | 0.00 | 0.00 | 35 | 1014.8 |
| 20260503215259 | 55 | 5 | 2.6 | 5.2 | 0.00 | 0.00 | 0.00 | 36 | 1014.5 |
| 20260503214757 | 55 | 49 | 0.9 | 2.6 | 0.00 | 0.00 | 0.00 | 35 | 1014.5 |
| 20260503214254 | 53 | 56 | 2.6 | 7.0 | 0.00 | 0.00 | 0.00 | 36 | 1014.6 |
| 20260503213752 | 55 | 95 | 2.6 | 6.1 | 0.00 | 0.00 | 0.00 | 36 | 1014.6 |
| 20260503213249 | 55 | 100 | 0.9 | 3.5 | 0.00 | 0.00 | 0.00 | 34 | 1014.7 |
| 20260503212746 | 55 | 62 | 3.5 | 5.2 | 0.00 | 0.00 | 0.00 | 38 | 1014.8 |
| 20260503212243 | 56 | 101 | 3.5 | 5.2 | 0.00 | 0.00 | 0.00 | 33 | 1014.8 |
| 20260503211741 | 56 | 61 | 1.7 | 3.5 | 0.00 | 0.00 | 0.00 | 40 | 1014.7 |
| 20260503211237 | 55 | 142 | 1.7 | 3.5 | 0.00 | 0.00 | 0.00 | 37 | 1014.7 |
| 20260503210732 | 55 | 95 | 1.7 | 2.6 | 0.00 | 0.00 | 0.00 | 38 | 1014.6 |
| 20260503210230 | 55 | 108 | 0.9 | 3.5 | 0.00 | 0.00 | 0.00 | 39 | 1014.8 |
| 20260503205725 | 55 | 122 | 3.5 | 6.1 | 0.00 | 0.00 | 0.00 | 36 | 1014.8 |
| 20260503205221 | 54 | 273 | 0.0 | 2.6 | 0.00 | 0.00 | 0.00 | 36 | 1014.9 |
| 20260503204718 | 54 | 103 | 2.6 | 3.5 | 0.00 | 0.00 | 0.00 | 36 | 1015.2 |
| 20260503204216 | 54 | 53 | 2.6 | 7.8 | 0.00 | 0.00 | 0.00 | 37 | 1014.9 |
| 20260503203713 | 54 | 92 | 3.5 | 5.2 | 0.00 | 0.00 | 0.00 | 34 | 1015.2 |
| 20260503203211 | 54 | 29 | 3.5 | 6.1 | 0.00 | 0.00 | 0.00 | 34 | 1015.3 |
| 20260503202708 | 54 | 82 | 3.5 | 7.8 | 0.00 | 0.00 | 0.00 | 36 | 1015.1 |
| 20260503202206 | 54 | 103 | 7.8 | 8.7 | 0.00 | 0.00 | 0.00 | 37 | 1015.2 |
| 20260503201703 | 53 | 125 | 7.0 | 8.7 | 0.00 | 0.00 | 0.00 | 39 | 1015.3 |
| 20260503201200 | 55 | 19 | 4.3 | 6.1 | 0.00 | 0.00 | 0.00 | 38 | 1015.6 |
| 20260503200656 | 54 | 144 | 0.9 | 6.1 | 0.00 | 0.00 | 0.00 | 39 | 1015.4 |
| 20260503200153 | 54 | 308 | 1.7 | 6.1 | 0.00 | 0.00 | 0.00 | 36 | 1015.8 |
| 20260503195650 | 54 | 117 | 4.3 | 8.7 | 0.00 | 0.00 | 0.00 | 39 | 1015.7 |
| 20260503195147 | 53 | 106 | 3.5 | 6.1 | 0.00 | 0.00 | 0.00 | 37 | 1015.7 |
| 20260503194644 | 53 | 97 | 3.5 | 7.0 | 0.00 | 0.00 | 0.00 | 36 | 1015.8 |
| 20260503194139 | 53 | 128 | 3.5 | 6.1 | 0.00 | 0.00 | 0.00 | 41 | 1016.1 |
| 20260503193637 | 52 | 145 | 1.7 | 5.2 | 0.00 | 0.00 | 0.00 | 37 | 1016.1 |
| 20260503193132 | 52 | 79 | 7.0 | 9.6 | 0.00 | 0.00 | 0.00 | 40 | 1016.0 |
| 20260503192628 | 53 | 45 | 4.3 | 8.7 | 0.00 | 0.00 | 0.00 | 35 | 1016.2 |
| 20260503192123 | 53 | 135 | 2.6 | 7.8 | 0.00 | 0.00 | 0.00 | 39 | 1016.3 |
| 20260503191621 | 53 | 80 | 3.5 | 8.7 | 0.00 | 0.00 | 0.00 | 37 | 1016.3 |
| 20260503191117 | 53 | 96 | 3.5 | 5.2 | 0.00 | 0.00 | 0.00 | 41 | 1016.3 |
| 20260503190615 | 52 | 208 | 0.0 | 6.1 | 0.00 | 0.00 | 0.00 | 45 | 1016.4 |
| 20260503190111 | 53 | 105 | 2.6 | 3.5 | 0.00 | 0.00 | 0.00 | 39 | 1016.5 |
| 20260503185608 | 51 | 110 | 3.5 | 5.2 | 0.00 | 0.00 | 0.00 | 36 | 1016.7 |
| 20260503185108 | 51 | 126 | 2.6 | 6.1 | 0.00 | 0.00 | 0.00 | 43 | 1016.8 |
| 20260503184604 | 51 | 128 | 3.5 | 7.0 | 0.00 | 0.00 | 0.00 | 38 | 1016.7 |
| 20260503184100 | 52 | 128 | 1.7 | 7.0 | 0.00 | 0.00 | 0.00 | 38 | 1016.5 |
| 20260503183557 | 51 | 80 | 3.5 | 8.7 | 0.00 | 0.00 | 0.00 | 37 | 1016.6 |
| 20260503183054 | 51 | 171 | 2.6 | 6.1 | 0.00 | 0.00 | 0.00 | 37 | 1016.5 |
| 20260503182553 | 51 | 112 | 1.7 | 3.5 | 0.00 | 0.00 | 0.00 | 35 | 1016.7 |
| 20260503182050 | 51 | 171 | 1.7 | 2.6 | 0.00 | 0.00 | 0.00 | 44 | 1016.7 |
| 20260503181547 | 50 | 292 | 1.7 | 2.6 | 0.00 | 0.00 | 0.00 | 38 | 1016.6 |
| 20260503181044 | 50 | 119 | 1.7 | 9.6 | 0.00 | 0.00 | 0.00 | 46 | 1016.7 |
| 20260503180541 | 51 | 16 | 5.2 | 6.1 | 0.00 | 0.00 | 0.00 | 35 | 1016.8 |
| 20260503180038 | 50 | 73 | 2.6 | 2.6 | 0.00 | 0.00 | 0.00 | 40 | 1017.1 |
| 20260503175535 | 49 | 9 | 2.6 | 6.1 | 0.00 | 0.00 | 0.00 | 38 | 1016.9 |
| 20260503175032 | 49 | 288 | 2.6 | 5.2 | 0.00 | 0.00 | 0.00 | 39 | 1017.3 |
| 20260503174530 | 49 | 64 | 4.3 | 6.1 | 0.00 | 0.00 | 0.00 | 39 | 1017.4 |
| 20260503174026 | 51 | 65 | 3.5 | 7.0 | 0.00 | 0.00 | 0.00 | 38 | 1017.2 |
| 20260503173521 | 49 | 104 | 1.7 | 3.5 | 0.00 | 0.00 | 0.00 | 41 | 1017.3 |
| 20260503173017 | 49 | 160 | 4.3 | 5.2 | 0.00 | 0.00 | 0.00 | 41 | 1017.5 |
| 20260503172515 | 48 | 116 | 3.5 | 7.8 | 0.00 | 0.00 | 0.00 | 46 | 1017.7 |
| 20260503172012 | 50 | 105 | 4.3 | 7.0 | 0.00 | 0.00 | 0.00 | 40 | 1017.3 |
| 20260503171508 | 48 | 112 | 0.0 | 1.7 | 0.00 | 0.00 | 0.00 | 43 | 1017.5 |
| 20260503171006 | 47 | 11 | 5.2 | 7.8 | 0.00 | 0.00 | 0.00 | 41 | 1017.5 |
| 20260503170502 | 48 | 63 | 5.2 | 7.0 | 0.00 | 0.00 | 0.00 | 43 | 1017.6 |
| 20260503150854 | 44 | 129 | 2.6 | 3.5 | 0.00 | 0.00 | 0.00 | 52 | 1018.2 |
| 20260503150350 | 44 | 101 | 3.5 | 6.1 | 0.00 | 0.00 | 0.00 | 44 | 1018.6 |
| 20260503140315 | 41 | 98 | 1.7 | 5.2 | 0.00 | 0.00 | 0.00 | 55 | 1018.6 |
| 20260503131244 | 39 | 69 | 1.7 | 7.0 | 0.00 | 0.00 | 0.00 | 71 | 1018.0 |
| 20260503130742 | 39 | 86 | 0.9 | 2.6 | 0.00 | 0.00 | 0.00 | 72 | 1017.9 |
| 20260503130239 | 38 | 127 | 2.6 | 2.6 | 0.00 | 0.00 | 0.00 | 72 | 1017.9 |
| 20260503120205 | 36 | 201 | 0.0 | 0.0 | 0.00 | 0.00 | 0.00 | 83 | 1017.5 |
| 20260503110632 | 27 | 295 | 0.0 | 0.0 | 0.00 | 0.00 | 0.00 | 97 | 1016.6 |
| 20260503110130 | 27 | 283 | 0.0 | 0.0 | 0.00 | 0.00 | 0.00 | 97 | 1016.6 |
| 20260503081445 | 28 | 267 | 0.0 | 0.0 | 0.00 | 0.00 | 0.00 | 92 | 1015.3 |
| 20260503080943 | 29 | 265 | 0.0 | 0.0 | 0.00 | 0.00 | 0.00 | 92 | 1015.2 |
| 20260503080439 | 29 | 236 | 0.0 | 0.0 | 0.00 | 0.00 | 0.00 | 91 | 1015.4 |
| 20260503072915 | 30 | 232 | 0.0 | 0.0 | 0.00 | 0.00 | 0.00 | 88 | 1015.0 |
| 20260503072413 | 31 | 218 | 0.0 | 0.0 | 0.00 | 0.00 | 0.00 | 87 | 1015.1 |
| 20260503071909 | 31 | 128 | 0.0 | 0.0 | 0.00 | 0.00 | 0.00 | 85 | 1015.0 |
| 20260503071407 | 32 | 118 | 0.0 | 1.7 | 0.00 | 0.00 | 0.00 | 83 | 1015.0 |
| 20260503070902 | 31 | 127 | 0.9 | 1.7 | 0.00 | 0.00 | 0.00 | 85 | 1015.1 |
| 20260503070400 | 31 | 102 | 0.0 | 0.0 | 0.00 | 0.00 | 0.00 | 85 | 1015.1 |
| 20260503060326 | 35 | 109 | 0.9 | 1.7 | 0.00 | 0.00 | 0.00 | 78 | 1015.0 |
| 20260503054814 | 36 | 129 | 1.7 | 3.5 | 0.00 | 0.00 | 0.00 | 76 | 1015.1 |
| 20260503054309 | 36 | 166 | 0.9 | 1.7 | 0.00 | 0.00 | 0.00 | 78 | 1014.8 |
| 20260503053807 | 36 | 106 | 3.5 | 3.5 | 0.00 | 0.00 | 0.00 | 76 | 1015.0 |
| 20260503053306 | 36 | 134 | 0.9 | 3.5 | 0.00 | 0.00 | 0.00 | 77 | 1015.0 |
| 20260503052802 | 36 | 156 | 0.9 | 1.7 | 0.00 | 0.00 | 0.00 | 78 | 1015.0 |
| 20260503052259 | 36 | 141 | 0.9 | 2.6 | 0.00 | 0.00 | 0.00 | 76 | 1014.9 |
| 20260503051754 | 36 | 132 | 2.6 | 3.5 | 0.00 | 0.00 | 0.00 | 76 | 1014.9 |
| 20260503051251 | 36 | 150 | 2.6 | 5.2 | 0.00 | 0.00 | 0.00 | 75 | 1014.9 |
| 20260503050748 | 36 | 152 | 0.9 | 5.2 | 0.00 | 0.00 | 0.00 | 76 | 1015.0 |
| 20260503050244 | 36 | 113 | 1.7 | 3.5 | 0.00 | 0.00 | 0.00 | 76 | 1014.8 |
| 20260503045742 | 36 | 128 | 2.6 | 3.5 | 0.00 | 0.00 | 0.00 | 76 | 1015.0 |
| 20260503045234 | 37 | 128 | 1.7 | 5.2 | 0.00 | 0.00 | 0.00 | 75 | 1015.0 |
| 20260503044729 | 37 | 112 | 3.5 | 5.2 | 0.00 | 0.00 | 0.00 | 74 | 1015.1 |
| 20260503044227 | 37 | 147 | 5.2 | 7.0 | 0.00 | 0.00 | 0.00 | 73 | 1014.8 |
| 20260503043724 | 37 | 123 | 4.3 | 7.8 | 0.00 | 0.00 | 0.00 | 73 | 1014.7 |
| 20260503043221 | 37 | 112 | 5.2 | 7.0 | 0.00 | 0.00 | 0.00 | 74 | 1014.9 |
| 20260503042717 | 37 | 113 | 3.5 | 5.2 | 0.00 | 0.00 | 0.00 | 74 | 1014.8 |
| 20260503042214 | 37 | 130 | 2.6 | 2.6 | 0.00 | 0.00 | 0.00 | 74 | 1014.6 |
| 20260503041710 | 0 | 0.0 | 0.0 | 0.00 | 0.00 | 0.00 | 1014.6 | ||
| 20260503041208 | 38 | 132 | 1.7 | 2.6 | 0.00 | 0.00 | 0.00 | 73 | 1014.7 |
| 20260503040705 | 38 | 132 | 1.7 | 2.6 | 0.00 | 0.00 | 0.00 | 73 | 1014.8 |
| 20260503040202 | 37 | 115 | 4.3 | 6.1 | 0.00 | 0.00 | 0.00 | 73 | 1014.6 |
| 20260503035659 | 38 | 106 | 2.6 | 2.6 | 0.00 | 0.00 | 0.00 | 73 | 1014.9 |
| 20260503035156 | 38 | 104 | 5.2 | 7.0 | 0.00 | 0.00 | 0.00 | 72 | 1014.8 |
| 20260503034654 | 38 | 124 | 3.5 | 3.5 | 0.00 | 0.00 | 0.00 | 72 | 1014.8 |
| 20260503034151 | 38 | 114 | 3.5 | 3.5 | 0.00 | 0.00 | 0.00 | 71 | 1014.7 |
| 20260503033648 | 38 | 104 | 5.2 | 6.1 | 0.00 | 0.00 | 0.00 | 71 | 1014.8 |